Weather History for Monument Pass, CO

Change the Weather History Date:

Wednesday, November 28, 2012

  Actual Average (KAPA) Record (KAPA)
Temperature  
Mean Temperature 39 °F -  
Max Temperature 55 °F 45 °F 71 °F (1998)
Min Temperature 23 °F 22 °F 5 °F (2001)
Degree Days  
Heating Degree Days 26    
Moisture  
Dew Point -2 °F    
Average Humidity 20    
Maximum Humidity 39    
Minimum Humidity 7    
Precipitation  
Precipitation 0.00 in - - ()
Sea Level Pressure  
Sea Level Pressure 30.18 in    
Wind  
Wind Speed 9 mph (SSW)    
Max Wind Speed 20 mph    
Max Gust Speed 16 mph    
Visibility 10 miles    
Events      
Averages and records for this station are not official NWS values.
T = Trace of Precipitation, MM = Missing Value Source: NWS Daily Summary

Daily Weather History Graph

Daily Weather History Graph

Search for Another Location

Airport:

Trip Planner

Search our weather history database for the weather conditions in past years. The results will help you decide how hot, cold, wet, or windy it might be!

Date:

Astronomy

Nov. 28, 2012 Rise Set
Actual Time 6:56 AM MST 4:36 PM MST
Civil Twilight 6:27 AM MST 5:06 PM MST
Nautical Twilight 5:54 AM MST 5:39 PM MST
Astronomical Twilight 5:21 AM MST 6:11 PM MST
Moon 4:53 PM MST (11/28) 6:56 AM MST (11/28)
Length of Visible Light 10h 39m
Length of Day
9h 40m
Full, 100% of the Moon is Illuminated
Nov 28
Full
Dec 6
Last Quarter
Dec 13
New
Dec 19
First Quarter
Dec 28
Full

Hourly Weather History & Observations

Time (MST) Temp. Windchill Dew Point Humidity Pressure Visibility Wind Dir Wind Speed Gust Speed Precip Events Conditions
12:11 AM 26.6 °F 18.2 °F -0.4 °F 31% 30.27 in 10.0 mi South 8.1 mph - N/A   Clear
12:31 AM 26.6 °F 18.2 °F -0.4 °F 31% 30.26 in 10.0 mi SSE 8.1 mph - N/A   Clear
12:51 AM 23.0 °F 13.1 °F 1.4 °F 39% 30.26 in 10.0 mi South 9.2 mph - N/A   Clear
1:11 AM 26.6 °F 16.2 °F 1.4 °F 34% 30.26 in 10.0 mi South 11.5 mph - N/A   Clear
1:31 AM 30.2 °F 20.8 °F -4.0 °F 23% 30.25 in 10.0 mi SSE 11.5 mph - N/A   Clear
1:51 AM 30.2 °F 21.3 °F -5.8 °F 21% 30.25 in 10.0 mi South 10.4 mph - N/A   Clear
2:11 AM 26.6 °F 16.2 °F -5.8 °F 24% 30.25 in 10.0 mi South 11.5 mph - N/A   Clear
2:31 AM 28.4 °F 19.1 °F -5.8 °F 23% 30.25 in 10.0 mi South 10.4 mph - N/A   Clear
2:50 AM 26.6 °F 16.2 °F -4.0 °F 26% 30.25 in 10.0 mi South 11.5 mph - N/A   Clear
3:11 AM 26.6 °F 17.5 °F -4.0 °F 26% 30.24 in 10.0 mi South 9.2 mph - N/A   Clear
3:31 AM 30.2 °F 21.3 °F -4.0 °F 23% 30.23 in 10.0 mi South 10.4 mph - N/A   Clear
3:51 AM 32.0 °F 23.6 °F -4.0 °F 21% 30.23 in 10.0 mi SSW 10.4 mph - N/A   Clear
4:11 AM 30.2 °F 20.8 °F -4.0 °F 23% 30.22 in 10.0 mi South 11.5 mph - N/A   Clear
4:31 AM 30.2 °F 21.3 °F -5.8 °F 21% 30.22 in 10.0 mi SSE 10.4 mph - N/A   Clear
4:51 AM 26.6 °F 16.8 °F -4.0 °F 26% 30.21 in 10.0 mi South 10.4 mph - N/A   Clear
5:11 AM 30.2 °F 20.8 °F -2.2 °F 25% 30.21 in 10.0 mi South 11.5 mph - N/A   Clear
5:30 AM 32.0 °F 24.2 °F -0.4 °F 25% 30.23 in 10.0 mi South 9.2 mph - N/A   Clear
5:51 AM 28.4 °F 19.1 °F -0.4 °F 29% 30.23 in 10.0 mi South 10.4 mph - N/A   Clear
6:11 AM 30.2 °F 21.9 °F -0.4 °F 27% 30.23 in 10.0 mi South 9.2 mph - N/A   Clear
6:31 AM 28.4 °F 19.7 °F -0.4 °F 29% 30.23 in 10.0 mi South 9.2 mph - N/A   Clear
6:51 AM 30.2 °F 21.9 °F 1.4 °F 29% 30.23 in 10.0 mi South 9.2 mph - N/A   Clear
7:11 AM 32.0 °F 25.6 °F -0.4 °F 25% 30.23 in 10.0 mi SSW 6.9 mph - N/A   Clear
7:31 AM 35.6 °F 29.9 °F -0.4 °F 22% 30.24 in 10.0 mi SSW 6.9 mph - N/A   Clear
7:51 AM 39.2 °F 35.0 °F -2.2 °F 17% 30.24 in 10.0 mi SSW 5.8 mph - N/A   Clear
8:11 AM 37.4 °F 32.8 °F -0.4 °F 20% 30.24 in 10.0 mi SSW 5.8 mph - N/A   Clear
8:31 AM 42.8 °F 38.0 °F -2.2 °F 15% 30.24 in 10.0 mi SW 8.1 mph - N/A   Clear
8:51 AM 46.4 °F 44.3 °F -4.0 °F 12% 30.24 in 10.0 mi South 4.6 mph - N/A   Clear
9:11 AM 51.8 °F - -2.2 °F 11% 30.23 in 10.0 mi SSW 4.6 mph - N/A   Clear
9:31 AM 55.4 °F - -5.8 °F 8% 30.23 in 10.0 mi WSW 12.7 mph - N/A   Clear
9:50 AM 53.6 °F - -5.8 °F 9% 30.23 in 10.0 mi West 16.1 mph - N/A   Clear
10:11 AM 53.6 °F - -4.0 °F 9% 30.23 in 10.0 mi WNW 19.6 mph - N/A   Clear
10:31 AM 53.6 °F - -5.8 °F 9% 30.23 in 10.0 mi WNW 15.0 mph - N/A   Clear
10:51 AM 55.4 °F - -5.8 °F 8% 30.22 in 10.0 mi NW 16.1 mph - N/A   Clear
11:31 AM 55.4 °F - -5.8 °F 8% 30.20 in 10.0 mi WNW 10.4 mph 16.1 mph N/A   Clear
11:51 AM 55.4 °F - -7.6 °F 7% 30.19 in 10.0 mi NW 3.5 mph - N/A   Clear
12:11 PM 53.6 °F - -9.4 °F 7% 30.18 in 10.0 mi Calm Calm - N/A   Clear
12:31 PM 53.6 °F - -7.6 °F 8% 30.17 in 10.0 mi Calm Calm - N/A   Clear
12:51 PM 53.6 °F - -7.6 °F 8% 30.16 in 10.0 mi Calm Calm - N/A   Clear
1:11 PM 53.6 °F - -5.8 °F 9% 30.15 in 10.0 mi Calm Calm - N/A   Clear
1:31 PM 53.6 °F - -5.8 °F 9% 30.15 in 10.0 mi Calm Calm - N/A   Clear
1:51 PM 53.6 °F - -4.0 °F 9% 30.13 in 10.0 mi Calm Calm - N/A   Clear
2:11 PM 51.8 °F - -2.2 °F 11% 30.13 in 10.0 mi ESE 4.6 mph - N/A   Clear
2:31 PM 51.8 °F - -2.2 °F 11% 30.13 in 10.0 mi Calm Calm - N/A   Clear
2:51 PM 50.0 °F - -2.2 °F 12% 30.13 in 10.0 mi Calm Calm - N/A   Clear
3:11 PM 50.0 °F - -0.4 °F 13% 30.13 in 10.0 mi Calm Calm - N/A   Clear
3:31 PM 48.2 °F - -4.0 °F 11% 30.13 in 10.0 mi ESE 3.5 mph - N/A   Clear
3:50 PM 46.4 °F - -2.2 °F 13% 30.13 in 10.0 mi Calm Calm - N/A   Clear
4:11 PM 46.4 °F 42.9 °F -4.0 °F 12% 30.13 in 10.0 mi SSE 6.9 mph - N/A   Clear
4:31 PM 42.8 °F 38.0 °F -2.2 °F 15% 30.13 in 7.0 mi South 8.1 mph - N/A   Clear
4:50 PM 39.2 °F 34.2 °F 1.4 °F 21% 30.13 in 10.0 mi South 6.9 mph - N/A   Clear
5:10 PM 39.2 °F 34.2 °F 3.2 °F 22% 30.13 in 10.0 mi South 6.9 mph - N/A   Clear
5:31 PM 41.0 °F 34.7 °F 1.4 °F 19% 30.13 in 10.0 mi South 10.4 mph - N/A   Clear
5:51 PM 37.4 °F 33.8 °F 1.4 °F 22% 30.13 in 10.0 mi SE 4.6 mph - N/A   Clear
6:11 PM 35.6 °F 29.9 °F 1.4 °F 24% 30.13 in 10.0 mi South 6.9 mph - N/A   Clear
6:31 PM 35.6 °F 29.9 °F 1.4 °F 24% 30.13 in 10.0 mi South 6.9 mph - N/A   Clear
6:51 PM 37.4 °F 31.4 °F -0.4 °F 20% 30.13 in 10.0 mi SSW 8.1 mph - N/A   Clear
7:11 PM 35.6 °F 30.7 °F 1.4 °F 24% 30.13 in 7.0 mi SW 5.8 mph - N/A   Clear
7:31 PM 33.8 °F 27.0 °F 1.4 °F 25% 30.13 in 10.0 mi SW 8.1 mph - N/A   Clear
7:51 PM 33.8 °F 27.0 °F 1.4 °F 25% 30.12 in 10.0 mi SW 8.1 mph - N/A   Clear
8:11 PM 35.6 °F 28.6 °F -0.4 °F 22% 30.12 in 10.0 mi SW 9.2 mph - N/A   Clear
8:31 PM 35.6 °F 28.6 °F -0.4 °F 22% 30.12 in 10.0 mi SSW 9.2 mph - N/A   Clear
8:51 PM 32.0 °F 24.8 °F 1.4 °F 27% 30.12 in 10.0 mi SSW 8.1 mph - N/A   Clear
9:11 PM 33.8 °F 26.4 °F -0.4 °F 23% 30.12 in 10.0 mi SW 9.2 mph - N/A   Clear
9:31 PM 35.6 °F 29.2 °F -0.4 °F 22% 30.12 in 10.0 mi SW 8.1 mph - N/A   Clear
9:51 PM 37.4 °F 29.8 °F 1.4 °F 22% 30.12 in 10.0 mi SW 11.5 mph - N/A   Clear
10:11 PM 39.2 °F 32.5 °F 1.4 °F 21% 30.12 in 10.0 mi SW 10.4 mph - N/A   Clear
10:31 PM 37.4 °F 28.9 °F 1.4 °F 22% 30.12 in 10.0 mi SW 13.8 mph - N/A   Clear
10:51 PM 37.4 °F 29.3 °F 3.2 °F 24% 30.12 in 10.0 mi SW 12.7 mph - N/A   Clear
11:11 PM 37.4 °F 29.3 °F 1.4 °F 22% 30.11 in 10.0 mi SW 12.7 mph - N/A   Clear
11:31 PM 32.0 °F 22.1 °F 1.4 °F 27% 30.11 in 10.0 mi SW 13.8 mph - N/A   Clear
11:51 PM 33.8 °F 24.8 °F 1.4 °F 25% 30.11 in 10.0 mi SW 12.7 mph - N/A   Clear